This is the latest recevied weather packets stored in our database for station/object K2ATL. If no packets are shown the sender has not sent any weather packets the latest 10 day(s).
| Time | Temp. | Humidity | Pressure | Rain* | Wind** | Luminosity | Snow |
|---|---|---|---|---|---|---|---|
| 1777753039 | 14.44° C | 37% | 1097.5 hPa | 0 mm | - | 638 W/m² | - |
| 1777752736 | 15° C | 37% | 1097.4 hPa | 0 mm | - | 526 W/m² | - |
| 1777752431 | 15° C | 35% | 1097.5 hPa | 0 mm | - | 600 W/m² | - |
| 1777752128 | 14.44° C | 35% | 1097.6 hPa | 0 mm | - | 807 W/m² | - |
| 1777751827 | 15.56° C | 36% | 1097.5 hPa | 0 mm | - | 782 W/m² | - |
| 1777751523 | 15° C | 34% | 1097.6 hPa | 0 mm | - | 682 W/m² | - |
| 1777751220 | 15.56° C | 33% | 1097.5 hPa | 0 mm | - | 838 W/m² | - |
| 1777750916 | 15.56° C | 32% | 1097.7 hPa | 0 mm | - | 828 W/m² | - |
| 1777750613 | 15.56° C | 33% | 1097.6 hPa | 0 mm | - | 843 W/m² | - |
| 1777750310 | 16.67° C | 32% | 1097.5 hPa | 0 mm | - | 880 W/m² | - |
| 1777750005 | 16.11° C | 31% | 1097.5 hPa | 0 mm | - | 939 W/m² | - |
| 1777749703 | 15° C | 34% | 1097.8 hPa | 0 mm | - | 904 W/m² | - |
| 1777749399 | 15° C | 35% | 1097.8 hPa | 0 mm | - | 877 W/m² | - |
| 1777749097 | 15° C | 34% | 1097.4 hPa | 0 mm | - | 879 W/m² | - |
| 1777748794 | 16.11° C | 36% | 1097.6 hPa | 0 mm | - | 892 W/m² | - |
| 1777748493 | 15° C | 38% | 1097.6 hPa | 0 mm | - | 960 W/m² | - |
| 1777748186 | 15° C | 38% | 1097.7 hPa | 0 mm | - | 952 W/m² | - |
| 1777747884 | 15° C | 36% | 1097.8 hPa | 0 mm | - | 907 W/m² | - |
| 1777747580 | 15° C | 38% | 1097.6 hPa | 0 mm | - | 928 W/m² | - |
| 1777747275 | 14.44° C | 43% | 1097.6 hPa | 0 mm | - | 935 W/m² | - |
| 1777746972 | 14.44° C | 42% | 1097.7 hPa | 0 mm | - | 967 W/m² | - |
| 1777746668 | 15° C | 43% | 1097.7 hPa | 0 mm | - | 1034 W/m² | - |
| 1777746363 | 15° C | 43% | 1097.7 hPa | 0 mm | - | 774 W/m² | - |
| 1777746059 | 14.44° C | 45% | 1097.7 hPa | 0 mm | - | 990 W/m² | - |
| 1777745757 | 15° C | 44% | 1097.6 hPa | 0 mm | - | 965 W/m² | - |
* Rain latest hour (hover to see other rain measurements)
** Current wind speed in m/s (hover to see current wind gust speed)